Location: Brede
(50.9167°N, 0.6000°E)
Time: 03:09:54
(UTC+00:00)

Spot 1 - Pass Details

Date: 08 August 2020
Orbit: 577 x 776 km, 98.7° (Epoch: 27 September)

Event Time Altitude Azimuth Distance (km) Brightness Sun altitude
Exits shadow 01:41:53 47° 234° (SW) 787 4.2 -19.6°
Maximum altitude 01:42:22 50° 258° (WSW) 756 4.2 -19.6°
Drops below altitude 10° 01:46:22 10° 335° (NNW) 1,907 7.1 -19.3°
Sets 01:48:34 0° 341° (NNW) 2,806 8.1 -19.2°
